TimeEDT,TemperatureF,Dew PointF,Humidity,Sea Level PressureIn,VisibilityMPH,Wind Direction,Wind SpeedMPH,Gust SpeedMPH,PrecipitationIn,Events,Conditions,WindDirDegrees,DateUTC
12:56 AM,50.0,48.0,93,30.04,5.0,ENE,11.5,-,0.02,Rain,Light Rain,60,2013-05-22 04:56:00
1:21 AM,50.0,48.2,94,29.96,6.0,East,9.2,-,0.12,Rain,Light Rain,80,2013-05-22 05:21:00
1:56 AM,50.0,48.0,93,29.96,10.0,ESE,6.9,-,0.14,Rain,Light Rain,120,2013-05-22 05:56:00
2:18 AM,50.0,48.2,94,29.89,10.0,SE,15.0,18.4,0.00,,Mostly Cloudy,130,2013-05-22 06:18:00
2:33 AM,50.0,48.2,94,29.91,10.0,SE,9.2,-,0.00,,Mostly Cloudy,130,2013-05-22 06:33:00
2:56 AM,50.0,48.0,93,29.99,10.0,Calm,Calm,-,0.00,,Overcast,0,2013-05-22 06:56:00
3:24 AM,50.0,48.2,94,29.94,10.0,Calm,Calm,-,N/A,,Overcast,0,2013-05-22 07:24:00
3:56 AM,50.0,48.9,96,30.04,10.0,West,6.9,-,0.00,Rain,Light Rain,270,2013-05-22 07:56:00
4:11 AM,50.0,48.2,94,29.95,2.5,South,5.8,-,0.11,Rain,Heavy Rain,170,2013-05-22 08:11:00
4:18 AM,50.0,48.2,94,29.94,5.0,South,4.6,-,0.14,Rain,Rain,170,2013-05-22 08:18:00
4:40 AM,50.0,48.2,94,29.92,10.0,East,3.5,-,0.15,Rain,Light Rain,80,2013-05-22 08:40:00
4:47 AM,50.0,48.2,94,29.93,10.0,Calm,Calm,-,0.16,Rain,Light Rain,0,2013-05-22 08:47:00
4:56 AM,50.0,48.9,96,29.97,10.0,Calm,Calm,-,0.16,Rain,Light Rain,0,2013-05-22 08:56:00
5:56 AM,51.1,48.9,92,29.94,10.0,South,8.1,-,0.01,Rain,Light Rain,170,2013-05-22 09:56:00
6:56 AM,52.0,50.0,93,29.96,10.0,NW,4.6,-,0.00,,Overcast,310,2013-05-22 10:56:00
7:56 AM,54.0,51.1,90,29.95,5.0,Calm,Calm,-,N/A,,Overcast,0,2013-05-22 11:56:00
8:03 AM,53.6,51.8,94,29.91,10.0,NW,3.5,-,N/A,,Overcast,310,2013-05-22 12:03:00
8:18 AM,53.6,51.8,94,29.91,10.0,Calm,Calm,-,N/A,,Overcast,0,2013-05-22 12:18:00
8:56 AM,55.0,52.0,89,29.96,10.0,ENE,3.5,-,N/A,,Overcast,60,2013-05-22 12:56:00
9:56 AM,57.0,53.1,87,29.97,10.0,Calm,Calm,-,N/A,,Overcast,0,2013-05-22 13:56:00
10:56 AM,57.9,55.0,90,29.97,10.0,Calm,Calm,-,N/A,,Overcast,0,2013-05-22 14:56:00
11:56 AM,60.1,55.9,86,29.97,10.0,Calm,Calm,-,N/A,,Overcast,0,2013-05-22 15:56:00
12:41 PM,62.6,57.2,82,29.93,10.0,ESE,3.5,-,N/A,,Overcast,110,2013-05-22 16:41:00
12:56 PM,64.0,57.9,80,29.96,10.0,Calm,Calm,-,N/A,,Overcast,0,2013-05-22 16:56:00
1:56 PM,64.9,59.0,81,29.95,10.0,ENE,5.8,-,N/A,,Overcast,70,2013-05-22 17:56:00
2:28 PM,66.2,60.8,83,29.90,10.0,East,8.1,-,N/A,,Overcast,80,2013-05-22 18:28:00
2:56 PM,66.9,60.1,79,29.94,10.0,ESE,6.9,-,N/A,,Overcast,110,2013-05-22 18:56:00
3:56 PM,64.0,55.9,75,29.95,10.0,East,10.4,-,N/A,,Overcast,100,2013-05-22 19:56:00
4:56 PM,60.1,54.0,80,29.94,10.0,East,10.4,-,N/A,,Overcast,100,2013-05-22 20:56:00
5:40 PM,57.2,53.6,88,29.89,10.0,East,12.7,-,N/A,,Overcast,90,2013-05-22 21:40:00
5:56 PM,57.0,52.0,83,29.94,10.0,East,13.8,-,N/A,,Overcast,90,2013-05-22 21:56:00
6:56 PM,55.9,52.0,87,29.97,10.0,East,10.4,-,N/A,,Overcast,90,2013-05-22 22:56:00
7:56 PM,55.9,51.1,84,29.97,10.0,ENE,4.6,-,N/A,,Overcast,60,2013-05-22 23:56:00
8:10 PM,55.4,51.8,88,29.93,10.0,East,6.9,-,N/A,,Overcast,80,2013-05-23 00:10:00
8:56 PM,54.0,50.0,86,29.97,10.0,East,11.5,-,N/A,,Overcast,80,2013-05-23 00:56:00
9:56 PM,53.1,51.1,93,29.98,6.0,East,4.6,-,N/A,,Overcast,80,2013-05-23 01:56:00
10:40 PM,53.6,51.8,94,29.95,2.5,NNE,3.5,-,N/A,,Overcast,30,2013-05-23 02:40:00
10:56 PM,53.1,52.0,96,29.98,1.8,NNE,3.5,-,N/A,,Overcast,30,2013-05-23 02:56:00
11:27 PM,53.6,51.8,94,29.93,2.5,ENE,3.5,-,N/A,,Overcast,60,2013-05-23 03:27:00
11:43 PM,53.6,51.8,94,29.93,3.0,Calm,Calm,-,N/A,,Overcast,0,2013-05-23 03:43:00
11:56 PM,53.1,52.0,96,29.96,4.0,NE,3.5,-,N/A,,Overcast,40,2013-05-23 03:56:00